Location: Earls Croome
(52.0667°N, 2.2000°W)
Time: 09:08:33
(UTC+00:00)

Cosmos 1238 Rocket - Pass Details

Date: 17 November 2019
Orbit: 374 x 1033 km, 82.9° (Epoch: 06 December)

Event Time Altitude Azimuth Distance (km) Brightness Sun altitude
Rises 06:25:28 0° 192° (SSW) 3,771 7.2 -10.1°
Reaches altitude 10° 06:28:06 10° 193° (SSW) 2,801 6.5 -9.7°
Maximum altitude 06:34:40 79° 280° (W) 980 3.9 -8.8°
Drops below altitude 10° 06:40:33 10° 8° (N) 2,520 6.1 -7.9°
Sets 06:42:49 0° 10° (N) 3,372 6.7 -7.6°
